Regional Weather Roundup
Issued by NWS

Home | Current Version | Previous Version | Text Only | Print | Product List | Glossary On
Versions: 1 2 3 4 5 6 7 8 9 10 11 12 13 14 15 16 17 18 19 20 21 22 23 24 25 26 27 28 29 30 31 32 33 34 35 36 37 38 39 40 41 42 43 44 45 46 47 48 49 50
000
ASUS43 KLSX 231407
RWRMO

WEATHER SUMMARY FOR MISSOURI
NATIONAL WEATHER SERVICE SPRINGFIELD MO
900 AM CDT SUN APR 23 2017

NOTE: "FAIR" INDICATES FEW OR NO CLOUDS BELOW 12,000 FEET WITH NO
       SIGNIFICANT WEATHER AND/OR OBSTRUCTIONS TO VISIBILITY.
       CURRENT SKY AND/OR WEATHER CONDITIONS ARE NOT AVAILABLE FOR
       CHILLICOTHE AND FARMINGTON.

MOZ001>031-035>038-043-044-053-054-231500-
...NORTHERN AND WESTERN MISSOURI...

CITY           SKY/WX    TMP DP  RH WIND       PRES   REMARKS
KANSAS CTY INT MOSUNNY   54  37  52 NE5       30.18F
KANSAS C DTWN  SUNNY     52  37  56 CALM      30.18F
LEE`S SUMMIT   SUNNY     53  37  54 N5        30.18S
ST JOSEPH      SUNNY     48  42  80 CALM      30.19F
CHILLICOTHE      N/A     53  36  52 N3        30.18F
KIRKSVILLE     SUNNY     56  36  47 N5        30.17F

$$
MOZ066>068-077>081-088>096-101>105-231500-
...SOUTHWEST MISSOURI...

CITY           SKY/WX    TMP DP  RH WIND       PRES   REMARKS
SPRINGFIELD    SUNNY     50  39  66 N8        30.12S
JOPLIN         SUNNY     50  41  71 NE6       30.15F
BRANSON        SUNNY     48  39  71 N6        30.13R

$$
MOZ032>034-039>042-045>050-055>058-069>072-231500-
...CENTRAL MISSOURI...

CITY           SKY/WX    TMP DP  RH WIND       PRES   REMARKS
COLUMBIA       SUNNY     54  34  46 NE9       30.14F
JEFFERSON CITY SUNNY     54  35  48 CALM      30.14F
ROLLA          SUNNY     52  36  54 NE12      30.11S
WHITEMAN AFB   SUNNY     52  39  62 N6        30.16R
OSAGE BEACH    SUNNY     50  35  56 VRB7      30.15S

$$
MOZ051-052-059>065-231500-
...EAST CENTRAL MISSOURI...

CITY           SKY/WX    TMP DP  RH WIND       PRES   REMARKS
ST LOUIS INTL  SUNNY     55  34  45 NE9       30.12S
SPIRIT OF STL  SUNNY     54  37  52 NE7       30.11F
ST CHARLES     SUNNY     54  35  48 NE10      30.12S

$$
MOZ072>076-082>087-097>100-106>115-231500-
...SOUTH CENTRAL AND SOUTHEAST MISSOURI...

CITY           SKY/WX    TMP DP  RH WIND       PRES   REMARKS
CAPE GIRARDEAU CLOUDY    49  38  65 N12       30.01S
FARMINGTON     SUNNY     51  35  54 N8G21     30.09R
POPLAR BLUFF   CLOUDY    51  40  65 N15       30.01R
WEST PLAINS    SUNNY     53  39  59 N14G21    30.08R

$$




USA.gov is the U.S. government's official web portal to all federal, state and local government web resources and services.